Groton, South Dakota, United States (57445)
Lat: 45.45N, Lon: 98.1W
Wx Zone: SDZ006
Local Info
Past Weather Observations for Wednesday, April 27, 2016

NOTE: This archive is for the closest National Weather Service station to Groton. Information may differ from the station used for current weather conditions.

Click here for Long-term Archive

Time Weather Temperature Dewpoint Humidity Pressure Winds Precip Visibility
23:53
Overcast
45°F / 7°C 39°F / 4°C 81% 29.92 in
(1013 mb)
E 11.5 mph
(E 19 kph)
0.00 in
(0.00 mm)
10SM
22:53
Overcast
43°F / 6°C 39°F / 4°C 87% 29.92 in
(1013 mb)
ENE 11.5 mph
(ENE 19 kph)
- 10SM
21:53
Overcast
43°F / 6°C 41°F / 5°C 93% 29.92 in
(1013 mb)
ENE 15 mph
(ENE 24 kph)
0.00 in
(0.00 mm)
10SM
20:53
Overcast
Light Rain
43°F / 6°C 41°F / 5°C 93% 29.95 in
(1014 mb)
ENE 15 mph
(ENE 24 kph)
0.00 in
(0.00 mm)
10SM
19:53
Overcast
Fog And Mist
43°F / 6°C 41°F / 5°C 93% 29.92 in
(1013 mb)
ENE 12.7 mph
(ENE 20 kph)
- 4SM
19:14
Overcast
Fog And Mist
45°F / 7°C 41°F / 5°C 87% 29.92 in
(1013 mb)
ENE 15 mph
(ENE 24 kph)
- 4SM
18:53
Overcast
Fog And Mist
45°F / 7°C 41°F / 5°C 87% 29.92 in
(1013 mb)
NE 12.7 mph
(NE 20 kph)
- 2SM
18:48
Overcast
Fog And Mist
45°F / 7°C 41°F / 5°C 87% 29.92 in
(1013 mb)
NE 12.7 mph
(NE 20 kph)
- 2 1/2SM
17:53
Overcast
45°F / 7°C 41°F / 5°C 87% 29.92 in
(1013 mb)
NE 15 mph
(NE 24 kph)
- 9SM
17:38
Overcast
45°F / 7°C 41°F / 5°C 87% 29.92 in
(1013 mb)
NE 16.1 mph
(NE 26 kph)
- 8SM
16:53
Overcast
46°F / 8°C 41°F / 5°C 82% 29.92 in
(1013 mb)
ENE 15 mph
(ENE 24 kph)
- 9SM
15:53
Overcast
46°F / 8°C 39°F / 4°C 76% 29.92 in
(1013 mb)
NE 16.1 mph
(NE 26 kph)
- 10SM
14:53
Overcast
46°F / 8°C 39°F / 4°C 76% 29.89 in
(1012 mb)
NE 19.6 mph
(NE 32 kph)
- 10SM
14:26
Overcast
46°F / 8°C 41°F / 5°C 82% 29.92 in
(1013 mb)
NE 18.4 mph
(NE 30 kph)
- 10SM
13:53
Overcast
46°F / 8°C 41°F / 5°C 82% 29.89 in
(1012 mb)
NE 17.3 mph
(NE 28 kph)
- 10SM
12:53
Overcast
48°F / 9°C 43°F / 6°C 82% 29.86 in
(1011 mb)
NE 17.3 mph
(NE 28 kph)
- 10SM
12:34
Overcast
46°F / 8°C 43°F / 6°C 87% 29.83 in
(1010 mb)
NE 18.4 mph
(NE 30 kph)
- 10SM
12:12
Overcast
48°F / 9°C 43°F / 6°C 82% 29.83 in
(1010 mb)
NE 20.7 mph
(NE 33 kph)
- 10SM
11:53
Overcast
Fog And Mist
48°F / 9°C 45°F / 7°C 87% 29.89 in
(1012 mb)
NE 18.4 mph
(NE 30 kph)
- 6SM
11:14
Overcast
Fog And Mist
46°F / 8°C 45°F / 7°C 93% 29.95 in
(1014 mb)
NE 12.7 mph
(NE 20 kph)
- 3SM
11:05
Overcast
Fog And Mist
46°F / 8°C 45°F / 7°C 93% 29.92 in
(1013 mb)
ENE 13.8 mph
(ENE 22 kph)
- 2 1/2SM
10:53
Overcast
Fog And Mist
46°F / 8°C 43°F / 6°C 87% 29.95 in
(1014 mb)
ENE 11.5 mph
(ENE 19 kph)
0.00 in
(0.00 mm)
3SM
10:42
Overcast
Light Rain
45°F / 7°C 43°F / 6°C 93% 29.95 in
(1014 mb)
ENE 11.5 mph
(ENE 19 kph)
0.00 in
(0.00 mm)
1 3/4SM
10:33
Overcast
Fog And Mist
45°F / 7°C 43°F / 6°C 93% 29.95 in
(1014 mb)
NE 10.4 mph
(NE 17 kph)
0.00 in
(0.00 mm)
2SM
10:11
Overcast
Light Rain
45°F / 7°C 43°F / 6°C 93% 29.95 in
(1014 mb)
NE 9.2 mph
(NE 15 kph)
0.00 in
(0.00 mm)
1 3/4SM
09:53
Overcast
Fog And Mist
45°F / 7°C 43°F / 6°C 93% 29.95 in
(1014 mb)
ENE 11.5 mph
(ENE 19 kph)
- 3SM
09:33
Overcast
Fog And Mist
43°F / 6°C 41°F / 5°C 93% 29.92 in
(1013 mb)
NE 11.5 mph
(NE 19 kph)
- 1 3/4SM
08:53
Overcast
45°F / 7°C 39°F / 4°C 81% 29.92 in
(1013 mb)
NE 13.8 mph
(NE 22 kph)
- 10SM
07:53
Overcast
43°F / 6°C 39°F / 4°C 87% 29.89 in
(1012 mb)
NE 18.4 mph
(NE 30 kph)
- 10SM
07:11
Overcast
43°F / 6°C 39°F / 4°C 87% 29.83 in
(1010 mb)
NE 15 mph
(NE 24 kph)
- 10SM
06:53
Overcast
43°F / 6°C 39°F / 4°C 87% 29.86 in
(1011 mb)
NE 15 mph
(NE 24 kph)
- 7SM
05:53
Overcast
43°F / 6°C 39°F / 4°C 87% 29.86 in
(1011 mb)
NNE 11.5 mph
(NNE 19 kph)
- 7SM
05:17
Overcast
43°F / 6°C 39°F / 4°C 87% 29.83 in
(1010 mb)
N 15 mph
(N 24 kph)
- 7SM
04:53
Overcast
43°F / 6°C 39°F / 4°C 87% 29.83 in
(1010 mb)
NNE 12.7 mph
(NNE 20 kph)
- 9SM
03:53
Overcast
43°F / 6°C 41°F / 5°C 93% 29.83 in
(1010 mb)
N 10.4 mph
(N 17 kph)
- 9SM
03:36
Overcast
43°F / 6°C 41°F / 5°C 93% 29.83 in
(1010 mb)
N 11.5 mph
(N 19 kph)
- 9SM
03:13
Overcast
Fog And Mist
43°F / 6°C 41°F / 5°C 93% 29.83 in
(1010 mb)
N 10.4 mph
(N 17 kph)
- 6SM
02:53
Overcast
Fog And Mist
45°F / 7°C 41°F / 5°C 87% 29.83 in
(1010 mb)
NNE 9.2 mph
(NNE 15 kph)
- 6SM
02:01
Overcast
45°F / 7°C 41°F / 5°C 87% 29.83 in
(1010 mb)
N 6.9 mph
(N 11 kph)
- 10SM
01:53
Overcast
45°F / 7°C 41°F / 5°C 87% 29.83 in
(1010 mb)
N 9.2 mph
(N 15 kph)
- 10SM
01:31
Overcast
45°F / 7°C 43°F / 6°C 93% 29.83 in
(1010 mb)
N 6.9 mph
(N 11 kph)
- 10SM
01:20
Overcast
45°F / 7°C 43°F / 6°C 93% 29.83 in
(1010 mb)
N 8.1 mph
(N 13 kph)
- 10SM
00:53
Overcast
45°F / 7°C 41°F / 5°C 87% 29.8 in
(1009 mb)
N 8.1 mph
(N 13 kph)
- 10SM
00:13
Overcast
Fog And Mist
45°F / 7°C 43°F / 6°C 93% 29.83 in
(1010 mb)
N 8.1 mph
(N 13 kph)
- 6SM
Time Weather Temperature Dewpoint Humidity Pressure Winds Precip Visibility


Weather for websites

WeatherForYou.com, LLC is not responsible for any damages or problems caused by this service. Current weather conditions are obtained from the closest station including government and personal stations which may have varying degrees of accuracy. Weather forecasts are derived from the NOAA NDFD. Like all things, this site belongs to Jesus Christ... He just trusts us to maintain it. If you have any questions or comments email webmaster@weatherforyou.com

Copyright © 2016, WeatherForYou.com LLC. All rights reserved.